Fort Polk, LA

7:53 PM CDT on March 22, 2017 (GMT -0500)
Fort Polk

Weather History for KDNK - March, 2013

Change the Weather History Date:

Thursday, March 21, 2013

  Actual Average (KPOE) Record (KPOE)
Temperature  
Mean Temperature 56 °F -  
Max Temperature 68 °F 69 °F 83 °F (2017)
Min Temperature 44 °F 48 °F 32 °F (2016)
Degree Days  
Heating Degree Days 9    
Growing Degree Days 6 (Base 50)    
Moisture  
Dew Point 36 °F    
Average Humidity 48    
Maximum Humidity 82    
Minimum Humidity 28    
Precipitation  
Precipitation 0.00 in - - ()
Sea Level Pressure  
Sea Level Pressure 29.93 in    
Wind  
Wind Speed 6 mph (SE)    
Max Wind Speed 17 mph    
Max Gust Speed 25 mph    
Visibility 10 miles    
Events      
Averages and records for this station are not official NWS values.
T = Trace of Precipitation, MM = Missing Value Source: NWS Daily Summary

Daily Weather History Graph

Daily Weather History Graph

Search for Another Location

Airport or City:

Trip Planner

Search our weather history database for the weather conditions in past years. The results will help you decide how hot, cold, wet, or windy it might be!

Date:

Astronomy

Mar. 21, 2013 Rise Set
Actual Time 7:14 AM CDT 7:24 PM CDT
Civil Twilight 6:50 AM CDT 7:48 PM CDT
Nautical Twilight 6:21 AM CDT 8:16 PM CDT
Astronomical Twilight 5:53 AM CDT 8:45 PM CDT
Moon 2:12 PM CDT (3/21) 3:17 AM CDT (3/21)
Length of Visible Light 12h 58m
Length of Day
12h 10m
Waxing Gibbous, 69% of the Moon is Illuminated
Mar 21
Waxing Gibbous
Mar 27
Full
Apr 2
Last Quarter
Apr 10
New
Apr 18
First Quarter

Hourly Weather History & Observations

Time (CDT) Temp. Dew Point Humidity Pressure Visibility Wind Dir Wind Speed Gust Speed Precip Events Conditions
12:53 AM 48.9 °F 37.9 °F 66% 30.05 in 10.0 mi Calm Calm - N/A   Clear
1:53 AM 46.9 °F 37.9 °F 71% 30.04 in 10.0 mi Calm Calm - N/A   Clear
2:53 AM 46.9 °F 37.0 °F 68% 30.03 in 10.0 mi East 3.5 mph - N/A   Clear
3:53 AM 44.1 °F 39.0 °F 82% 30.02 in 10.0 mi Calm Calm - N/A   Clear
4:53 AM 48.0 °F 35.1 °F 61% 30.02 in 10.0 mi East 4.6 mph - N/A   Clear
5:53 AM 48.9 °F 33.1 °F 54% 30.02 in 10.0 mi East 3.5 mph - N/A   Clear
6:53 AM 48.9 °F 32.0 °F 52% 30.02 in 10.0 mi ENE 4.6 mph - N/A   Clear
7:53 AM 48.9 °F 30.9 °F 50% 30.02 in 10.0 mi East 5.8 mph - N/A   Clear
8:53 AM 52.0 °F 30.0 °F 43% 30.03 in 10.0 mi East 9.2 mph - N/A   Mostly Cloudy
9:53 AM 55.0 °F 30.0 °F 38% 30.01 in 10.0 mi ESE 10.4 mph 16.1 mph N/A   Clear
10:53 AM 57.0 °F 30.9 °F 37% 30.01 in 10.0 mi ESE 10.4 mph 16.1 mph N/A   Mostly Cloudy
11:53 AM 60.1 °F 30.9 °F 33% 29.99 in 10.0 mi SSE 11.5 mph 18.4 mph N/A   Mostly Cloudy
12:53 PM 63.0 °F 28.9 °F 28% 29.95 in 10.0 mi South 17.3 mph 21.9 mph N/A   Overcast
1:53 PM 64.9 °F 30.9 °F 28% 29.91 in 10.0 mi SSE 15.0 mph - N/A   Mostly Cloudy
2:53 PM 66.0 °F 34.0 °F 30% 29.86 in 10.0 mi SE 13.8 mph 18.4 mph N/A   Scattered Clouds
3:53 PM 68.0 °F 36.0 °F 31% 29.82 in 10.0 mi SE 10.4 mph 19.6 mph N/A   Clear
4:53 PM 66.0 °F 34.0 °F 30% 29.80 in 10.0 mi South 12.7 mph 25.3 mph N/A   Clear
5:53 PM 66.0 °F 37.0 °F 34% 29.78 in 10.0 mi South 13.8 mph 23.0 mph N/A   Clear
6:53 PM 63.0 °F 37.9 °F 40% 29.80 in 10.0 mi South 8.1 mph 19.6 mph N/A   Mostly Cloudy
7:53 PM 62.1 °F 41.0 °F 46% 29.80 in 10.0 mi SSE 12.7 mph - N/A   Overcast
8:53 PM 61.0 °F 43.0 °F 52% 29.79 in 10.0 mi SSE 12.7 mph 17.3 mph N/A   Overcast
9:53 PM 60.1 °F 43.0 °F 53% 29.80 in 10.0 mi SSE 11.5 mph 19.6 mph N/A   Overcast
10:53 PM 59.0 °F 43.0 °F 55% 29.83 in 10.0 mi SSE 11.5 mph 18.4 mph N/A   Overcast
11:53 PM 57.9 °F 45.0 °F 62% 29.81 in 10.0 mi SSE 9.2 mph 18.4 mph 0.00 in   Overcast